Overview Statistics Trail Chart Weather Telemetry Raw packets
 

This is the latest recevied weather packets stored in our database for station/object N6GPM. If no packets are shown the sender has not sent any weather packets the latest 10 day(s).

<< 96 97 98 99 100 101 102 >>
Time Temp. Humidity Pressure Rain* Wind** Luminosity Snow
1787963582 35.56° C 30% 1015.8 hPa 0 mm - 242 W/m² -
1787963277 35° C 30% 1015.7 hPa 0 mm - 262 W/m² -
1787962976 35.56° C 28% 1015.6 hPa 0 mm - 284 W/m² -
1787962676 35.56° C 27% 1015.5 hPa 0 mm - 304 W/m² -
1787962370 35.56° C 28% 1015.3 hPa 0 mm - 324 W/m² -
1787962064 35.56° C 27% 1015.4 hPa 0 mm - 343 W/m² -
1787961759 36.11° C 27% 1015.4 hPa 0 mm - 369 W/m² -
1787961458 36.11° C 26% 1015.3 hPa 0 mm - 388 W/m² -
1787961157 36.11° C 26% 1015.4 hPa 0 mm - 406 W/m² -
1787960851 36.11° C 24% 1014.9 hPa 0 mm - 425 W/m² -
1787960546 36.67° C 25% 1015.2 hPa 0 mm - 448 W/m² -
1787960244 36.67° C 24% 1015 hPa 0 mm - 470 W/m² -
1787959940 36.11° C 26% 1015.3 hPa 0 mm - 491 W/m² -
1787959634 36.11° C 24% 1015.3 hPa 0 mm - 518 W/m² -
1787959333 36.67° C 25% 1015.3 hPa 0 mm - 537 W/m² -
1787959028 36.67° C 25% 1015.5 hPa 0 mm - 556 W/m² -
1787958723 36.67° C 26% 1015.3 hPa 0 mm - 568 W/m² -
1787958418 36.67° C 25% 1015.4 hPa 0 mm - 586 W/m² -
1787958115 36.67° C 26% 1015.5 hPa 0 mm - 605 W/m² -
1787957813 36.67° C 26% 1015.5 hPa 0 mm - 623 W/m² -
1787957508 36.67° C 25% 1015.5 hPa 0 mm - 638 W/m² -
1787957203 37.22° C 26% 1015.5 hPa 0 mm - 657 W/m² -
1787956898 37.78° C 25% 1015.4 hPa 0 mm - 676 W/m² -
1787956597 37.22° C 25% 1015.4 hPa 0 mm - 690 W/m² -
1787956291 37.22° C 25% 1015.6 hPa 0 mm - 710 W/m² -

* Rain latest hour (hover to see other rain measurements)
** Current wind speed in m/s (hover to see current wind gust speed)